"2009-11-16 00:00:00",1420126,3.037,317.6,5.394,1.194,-0.787,98.08643,-5.574,-4.254,87.7,0,109.2,13.74,-4.84,279.6
"2009-11-16 00:00:30",1420127,2.904,315.1,7.522,1.249,-1.489,98.08698,-5.573,-4.401,87.6,0,109.2,13.74,-4.84,277.1
"2009-11-16 00:01:00",1420128,2.709,310.2,4.5,1.205,-2.397,98.08698,-5.573,-4.494,87.6,0,109.2,13.74,-4.84,272.2
"2009-11-16 00:01:30",1420129,3.017,319.9,8.93,1.174,-0.875,98.08754,-5.571,-4.278,87.8,0,109.3,13.74,-4.84,281.9
"2009-11-16 00:02:00",1420130,3.336,320.3,12.27,0.921,-0.004,98.08726,-5.572,-4.315,87.8,0,109.2,13.75,-4.84,282.3
"2009-11-16 00:02:30",1420131,3.312,324.8,6.465,1.076,-0.435,98.08781,-5.571,-4.285,87.9,0,109.2,13.75,-4.84,286.8
"2009-11-16 00:03:00",1420132,3.086,318.3,5.845,1.124,-0.666,98.08921,-5.567,-4.228,87.9,0,109.2,13.75,-4.83,280.3
"2009-11-16 00:03:30",1420133,2.588,314.2,6.545,1.191,-1.971,98.09004,-5.565,-4.417,87.8,0,109.2,13.75,-4.83,276.2
"2009-11-16 00:04:00",1420134,2.833,309.8,8.57,1.109,-1.917,98.08976,-5.566,-4.425,87.8,0,109.2,13.76,-4.83,271.8
"2009-11-16 00:04:30",1420135,3.629,313.4,6.006,1.053,-0.889,98.09087,-5.563,-4.312,87.9,0,109.2,13.76,-4.83,275.4
"2009-11-16 00:05:00",1420136,3.619,313.8,6.246,1,-0.265,98.09227,-5.559,-4.321,88,0,109.2,13.76,-4.83,275.8
"2009-11-16 00:05:30",1420137,3.403,314.4,6.566,1.151,-0.35,98.0931,-5.557,-4.269,88,0,109.2,13.76,-4.82,276.4
"2009-11-16 00:06:00",1420138,3.501,313.2,4.563,1.066,0.029,98.09282,-5.558,-4.239,88.1,0,109.2,13.76,-4.83,275.2
"2009-11-16 00:06:30",1420139,2.167,304.9,4.339,0.766,-3.232,98.09394,-5.555,-4.409,88,0,109.2,13.76,-4.82,266.9
"2009-11-16 00:07:00",1420140,2.725,311.7,4.826,1.173,-1.685,98.09338,-5.557,-4.42,88,0,109.2,13.76,-4.82,273.7
"2009-11-16 00:07:30",1420141,3.108,314.7,5.408,1.087,-0.268,98.09366,-5.556,-4.256,88.1,0,109.2,13.76,-4.82,276.7
"2009-11-16 00:08:00",1420142,3.201,314.4,6.226,1.164,-0.131,98.09338,-5.557,-4.281,88.1,0,109.2,13.76,-4.82,276.4
"2009-11-16 00:08:30",1420143,3.429,316,4.137,0.951,0.327,98.09394,-5.555,-4.273,88.1,0,109.2,13.76,-4.82,278.0
"2009-11-16 00:09:00",1420144,2.829,315,5.929,1.089,-0.391,98.09394,-5.555,-4.252,88.2,0,109.2,13.76,-4.82,277.0
"2009-11-16 00:09:30",1420145,2.227,312.9,6.911,1.187,-2.103,98.09394,-5.555,-4.391,88,0,109.2,13.76,-4.82,274.9
"2009-11-16 00:10:00",1420146,1.858,313.8,5.144,0.981,-3.186,98.09394,-5.555,-4.42,88,0,109.2,13.76,-4.82,275.8
"2009-11-16 00:10:30",1420147,3.111,319.8,5.193,1.058,-0.682,98.09394,-5.555,-4.248,88.2,0,109.2,13.76,-4.82,281.8
"2009-11-16 00:11:00",1420148,2.842,316.1,6.716,1.174,-1.056,98.09394,-5.555,-4.314,88.1,0,109.2,13.76,-4.82,278.1
"2009-11-16 00:11:30",1420149,3.747,319.1,4.02,0.851,0.704,98.09394,-5.555,-4.187,88.2,0,109.2,13.76,-4.82,281.1
"2009-11-16 00:12:00",1420150,3.352,317.8,6.307,1.055,-0.162,98.09394,-5.555,-4.281,88.2,0,109.2,13.76,-4.82,279.8
"2009-11-16 00:12:30",1420151,2.99,317.8,6.295,1.148,-1.46,98.09394,-5.555,-4.354,88.1,0,109.2,13.76,-4.82,279.8
"2009-11-16 00:13:00",1420152,2.102,310.7,3.975,0.879,-2.741,98.09394,-5.555,-4.356,88.1,0,109.2,13.76,-4.82,272.7
"2009-11-16 00:13:30",1420153,3.414,317,5.622,1.066,-0.373,98.09394,-5.555,-4.308,88.2,0,109.2,13.76,-4.82,279.0
"2009-11-16 00:14:00",1420154,2.905,315.2,5.669,1.194,-0.759,98.09394,-5.555,-4.245,88.2,0,109.2,13.76,-4.82,277.2
"2009-11-16 00:14:30",1420155,3.609,317.6,5.475,1.051,0.416,98.09394,-5.555,-4.202,88.2,0,109.2,13.76,-4.82,279.6
"2009-11-16 00:15:00",1420156,3.465,317.3,5.39,1.064,0.261,98.09394,-5.555,-4.243,88.2,0,109.2,13.76,-4.82,279.3
"2009-11-16 00:15:30",1420157,2.819,311.8,5.505,1.173,-1.584,98.09394,-5.555,-4.422,88,0,109.2,13.76,-4.82,273.8
"2009-11-16 00:16:00",1420158,2.537,311.3,6.498,1.07,-1.957,98.09394,-5.555,-4.33,88.1,0,109.2,13.76,-4.82,273.3
"2009-11-16 00:16:30",1420159,3.127,314.5,6.473,1.153,-0.675,98.09394,-5.555,-4.257,88.2,0,109.2,13.76,-4.82,276.5
"2009-11-16 00:17:00",1420160,2.733,312.3,7.666,1.219,-1.367,98.09394,-5.555,-4.395,88,0,109.2,13.76,-4.82,274.3
"2009-11-16 00:17:30",1420161,3.937,317.8,3.89,0.614,1.288,98.09394,-5.555,-4.173,88.2,0,109.2,13.76,-4.82,279.8
"2009-11-16 00:18:00",1420162,3.334,312,6.349,1.143,-0.407,98.09394,-5.555,-4.28,88.1,0,109.2,13.76,-4.82,274.0
"2009-11-16 00:18:30",1420163,3.419,316.2,6.08,0.975,-0.03,98.09394,-5.555,-4.277,88.1,0,109.2,13.76,-4.82,278.2
"2009-11-16 00:19:00",1420164,2.262,311.3,5.51,1.088,-2.024,98.09422,-5.554,-4.319,88,0,109.2,13.76,-4.82,273.3
"2009-11-16 00:19:30",1420165,2.616,309.8,6.511,1.167,-1.573,98.09394,-5.555,-4.279,88,0,109.2,13.77,-4.82,271.8
"2009-11-16 00:20:00",1420166,2.453,308.2,7.98,1.182,-1.173,98.09394,-5.555,-4.188,88,0,109.2,13.77,-4.82,270.2
"2009-11-16 00:20:30",1420167,3.485,309.6,7.691,1.099,-0.391,98.09394,-5.555,-4.271,87.9,0,109.2,13.77,-4.82,271.6
"2009-11-16 00:21:00",1420168,3.636,309,5.117,1.067,0.272,98.09394,-5.555,-4.241,87.9,0,109.2,13.77,-4.82,271.0
"2009-11-16 00:21:30",1420169,3.554,309.7,6.081,1.075,-0.411,98.09394,-5.555,-4.29,87.8,0,109.2,13.77,-4.82,271.7
"2009-11-16 00:22:00",1420170,2.101,303.2,4.936,0.867,-2.497,98.09394,-5.555,-4.315,87.8,0,109.2,13.77,-4.82,265.2
"2009-11-16 00:22:30",1420171,3.002,303.8,6.786,1.175,-1.444,98.09394,-5.555,-4.312,87.7,0,109.2,13.77,-4.82,265.8
"2009-11-16 00:23:00",1420172,2.839,308,5.917,1.194,-0.731,98.09478,-5.553,-4.21,87.8,0,109.2,13.77,-4.82,270.0
"2009-11-16 00:23:30",1420173,2.938,304.9,6.75,1.162,-0.6,98.09507,-5.552,-4.205,87.8,0,109.2,13.77,-4.82,266.9
"2009-11-16 00:24:00",1420174,3.357,308.2,6.016,1.074,-0.157,98.09535,-5.552,-4.223,87.7,0,109.2,13.77,-4.82,270.2
"2009-11-16 00:24:30",1420175,3.224,306.9,5.544,1.107,-0.599,98.09422,-5.554,-4.286,87.6,0,109.2,13.77,-4.82,268.9
"2009-11-16 00:25:00",1420176,2.226,299.6,5.444,0.924,-2.386,98.09394,-5.555,-4.315,87.5,0,109.2,13.77,-4.82,261.6
"2009-11-16 00:25:30",1420177,3.368,305.2,6.266,1.054,-0.217,98.09478,-5.553,-4.266,87.5,0,109.2,13.77,-4.82,267.2
"2009-11-16 00:26:00",1420178,3.183,304.7,6.49,1.148,-0.806,98.09394,-5.555,-4.282,87.4,0,109.2,13.77,-4.82,266.7
"2009-11-16 00:26:30",1420179,3.46,306.2,5.266,1.062,0.3,98.09394,-5.555,-4.163,87.5,0,109.2,13.77,-4.82,268.2
"2009-11-16 00:27:00",1420180,3.566,306.6,5.355,0.994,-0.005,98.09451,-5.554,-4.194,87.4,0,109.2,13.77,-4.82,268.6
"2009-11-16 00:27:30",1420181,2.959,304.2,6.753,1.127,-1.304,98.09478,-5.553,-4.328,87.2,0,109.2,13.77,-4.82,266.2
"2009-11-16 00:28:00",1420182,2.717,307.6,6.611,1.119,-1.819,98.09451,-5.554,-4.308,87.2,0,109.2,13.77,-4.82,269.6
"2009-11-16 00:28:30",1420183,3.046,308.9,6.068,1.175,-0.915,98.09507,-5.552,-4.319,87.1,0,109.2,13.77,-4.82,270.9
"2009-11-16 00:29:00",1420184,3.269,308.1,5.82,1.138,-0.428,98.09507,-5.552,-4.246,87.1,0,109.2,13.77,-4.82,270.1
"2009-11-16 00:29:30",1420185,3.197,306.3,6.156,1.17,-0.27,98.09451,-5.554,-4.16,87.2,0,109.2,13.77,-4.82,268.3
"2009-11-16 00:30:00",1420186,3.244,305.8,5.66,1.192,-0.577,98.09451,-5.554,-4.273,87,0,109.2,13.77,-4.82,267.8
"2009-11-16 00:30:30",1420187,2.586,304.1,6.149,1.159,-1.431,98.09422,-5.554,-4.246,87,0,109.2,13.77,-4.82,266.1
"2009-11-16 00:31:00",1420188,2.732,303.9,6.018,1.1,-1.7,98.09394,-5.555,-4.386,86.8,0,109.2,13.77,-4.82,265.9
"2009-11-16 00:31:30",1420189,3.101,305.6,7.223,1.145,-1.278,98.09394,-5.555,-4.328,86.7,0,109.2,13.77,-4.82,267.6
"2009-11-16 00:32:00",1420190,4.179,303.1,6.046,1.093,0.164,98.09394,-5.555,-4.262,86.7,0,109.2,13.77,-4.82,265.1
"2009-11-16 00:32:30",1420191,4.461,304.5,5.417,0.594,1.223,98.09394,-5.555,-4.157,86.8,0,109.2,13.77,-4.82,266.5
"2009-11-16 00:33:00",1420192,4.278,305.7,4.592,0.867,0.797,98.09394,-5.555,-4.169,86.7,0,109.2,13.77,-4.82,267.7
"2009-11-16 00:33:30",1420193,4.054,308.6,4.527,1.141,-0.722,98.09394,-5.555,-4.212,86.5,0,109.2,13.77,-4.82,270.6
"2009-11-16 00:34:00",1420194,3.252,296.1,6.256,1.115,-2.211,98.09394,-5.555,-4.385,86.3,0,109.2,13.77,-4.82,258.1
"2009-11-16 00:34:30",1420195,3.635,297.3,6.63,1.232,-0.174,98.09621,-5.549,-4.169,86.4,0,109.2,13.77,-4.82,259.3
"2009-11-16 00:35:00",1420196,4.266,300.9,4.894,1.174,0.294,98.09763,-5.546,-4.213,86.3,0,109.2,13.77,-4.81,262.9
"2009-11-16 00:35:30",1420197,4.365,296.1,5.057,0.981,0.422,98.09989,-5.54,-4.155,86.3,0,109.2,13.77,-4.81,258.1
"2009-11-16 00:36:00",1420198,4.171,297.6,6.775,0.957,0.782,98.10159,-5.536,-4.157,86.2,0,109.2,13.77,-4.80,259.6
"2009-11-16 00:36:30",1420199,3.604,296.1,6.03,1.136,-0.786,98.10442,-5.528,-4.222,86,0,109.2,13.77,-4.80,258.1
"2009-11-16 00:37:00",1420200,3.397,290.2,6.002,1.168,-1.878,98.10925,-5.516,-4.323,85.8,0,109.2,13.77,-4.78,252.2
"2009-11-16 00:37:30",1420201,3.683,293.3,6.632,1.187,-0.788,98.1172,-5.496,-4.21,85.9,0,109.2,13.78,-4.76,255.3
"2009-11-16 00:38:00",1420202,4.642,301.1,5.253,0.961,0.667,98.1257,-5.474,-4.206,85.8,0,109.2,13.77,-4.74,263.1
"2009-11-16 00:38:30",1420203,4.823,295.8,4.332,0.677,1.14,98.12797,-5.469,-4.172,85.8,0,109.2,13.77,-4.74,257.8
"2009-11-16 00:39:00",1420204,4.363,293.9,5.045,1.064,0.211,98.12769,-5.469,-4.165,85.7,0,109.2,13.77,-4.74,255.9
"2009-11-16 00:39:30",1420205,3.006,285.1,4.358,0.737,-2.281,98.12797,-5.469,-4.232,85.6,0,109.2,13.78,-4.74,247.1
"2009-11-16 00:40:00",1420206,3.926,291.9,5.796,1.121,-0.649,98.12826,-5.468,-4.268,85.5,0,109.2,13.77,-4.74,253.9
"2009-11-16 00:40:30",1420207,3.771,291.4,6.937,1.109,-0.702,98.13052,-5.462,-4.198,85.5,0,109.2,13.78,-4.73,253.4
"2009-11-16 00:41:00",1420208,4.428,292.8,5.252,1.033,0.609,98.13535,-5.45,-4.142,85.5,0,109.2,13.78,-4.72,254.8
"2009-11-16 00:41:30",1420209,4.224,289.5,6.191,1.149,0.027,98.14046,-5.437,-4.134,85.5,0,109.2,13.78,-4.70,251.5
"2009-11-16 00:42:00",1420210,4.541,287.3,5.265,0.987,0.424,98.14584,-5.423,-4.128,85.4,0,109.2,13.78,-4.69,249.3
"2009-11-16 00:42:30",1420211,3.636,291.6,4.887,1.156,-1.043,98.15775,-5.393,-4.202,85.3,0,109.2,13.78,-4.66,253.6
"2009-11-16 00:43:00",1420212,3.286,296.6,8.39,1.053,-1.685,98.16201,-5.382,-4.219,85.2,0,109.2,13.78,-4.65,258.6
"2009-11-16 00:43:30",1420213,3.78,294.5,7.766,1.234,-0.116,98.16201,-5.382,-4.079,85.4,0,109.2,13.78,-4.65,256.5
"2009-11-16 00:44:00",1420214,4.639,294.8,5.048,0.569,1.355,98.16228,-5.381,-4.032,85.3,0,109.2,13.78,-4.65,256.8
"2009-11-16 00:44:30",1420215,4.246,299.1,5.63,0.989,0.47,98.16201,-5.382,-4.1,85.2,0,109.2,13.78,-4.65,261.1
"2009-11-16 00:45:00",1420216,3.815,287.2,6.564,1.101,-0.229,98.16201,-5.382,-4.076,85.2,0,109.2,13.78,-4.65,249.2
"2009-11-16 00:45:30",1420217,3.439,286.7,3.793,1.152,-1.682,98.16457,-5.375,-4.232,85,0,109.2,13.78,-4.64,248.7
"2009-11-16 00:46:00",1420218,3.923,294.3,6.983,1.228,-0.431,98.17137,-5.358,-4.053,85.1,0,109.2,13.77,-4.62,256.3
"2009-11-16 00:46:30",1420219,4.161,295.9,5.629,1.121,-0.338,98.18754,-5.317,-4.082,85,0,109.2,13.77,-4.58,257.9
"2009-11-16 00:47:00",1420220,4.702,303.4,5.694,0.753,1.209,98.19547,-5.297,-3.958,85,0,109.2,13.77,-4.56,265.4
"2009-11-16 00:47:30",1420221,4.45,299.6,5.14,1.091,0.245,98.19604,-5.295,-4.048,84.9,0,109.2,13.77,-4.56,261.6
"2009-11-16 00:48:00",1420222,3.388,288.8,4.681,1.032,-1.743,98.19633,-5.295,-4.038,84.9,0,109.2,13.77,-4.56,250.8
"2009-11-16 00:48:30",1420223,3.685,294.4,9.22,1.25,-1.071,98.19604,-5.295,-4.137,84.7,0,109.2,13.77,-4.56,256.4
"2009-11-16 00:49:00",1420224,4.238,298.2,7.257,1.1,-0.245,98.19661,-5.294,-4.034,84.7,0,109.2,13.77,-4.56,260.2
"2009-11-16 00:49:30",1420225,4.274,303,8.26,1.035,0.672,98.19604,-5.295,-3.985,84.7,0,109.2,13.77,-4.56,265.0
"2009-11-16 00:50:00",1420226,4.454,305.3,4.839,0.938,0.714,98.19661,-5.294,-3.964,84.6,0,109.3,13.77,-4.56,267.3
"2009-11-16 00:50:30",1420227,4.714,302,5.543,0.922,0.896,98.19662,-5.294,-3.931,84.6,0,109.2,13.77,-4.56,264.0
"2009-11-16 00:51:00",1420228,4.258,298.2,5.97,1.09,0.2,98.20058,-5.284,-4.011,84.4,0,109.2,13.77,-4.55,260.2
"2009-11-16 00:51:30",1420229,3.52,293.7,4.965,0.963,-1.799,98.21303,-5.252,-4.055,84.2,0,109.2,13.77,-4.52,255.7
"2009-11-16 00:52:00",1420230,4.478,301.3,7.073,1.068,0.212,98.21901,-5.237,-3.954,84.2,0,109.2,13.78,-4.50,263.3
"2009-11-16 00:52:30",1420231,4.56,307.6,6.293,1.096,0.738,98.22667,-5.217,-3.927,84.1,0,109.2,13.78,-4.48,269.6
"2009-11-16 00:53:00",1420232,4.64,309,5.4,0.914,0.956,98.23176,-5.204,-3.912,84.1,0,109.2,13.78,-4.47,271.0
"2009-11-16 00:53:30",1420233,4.166,303.2,6.054,1.101,0.29,98.23232,-5.203,-3.892,84,0,109.2,13.78,-4.47,265.2
"2009-11-16 00:54:00",1420234,3.343,302.9,7.347,1.16,-1.577,98.2312,-5.206,-4.003,83.8,0,109.2,13.78,-4.47,264.9
"2009-11-16 00:54:30",1420235,3.627,306.4,5.59,1.158,-1.331,98.2312,-5.206,-4.012,83.7,0,109.2,13.78,-4.47,268.4
"2009-11-16 00:55:00",1420236,4.697,309.6,5.535,1.118,0.704,98.23259,-5.202,-3.94,83.7,0,109.2,13.78,-4.47,271.6
"2009-11-16 00:55:30",1420237,5.406,318,5.155,0.904,1.567,98.23148,-5.205,-3.86,83.7,0,109.2,13.78,-4.47,280.0
"2009-11-16 00:56:00",1420238,5.553,323.5,5.598,0.651,1.983,98.23203,-5.204,-3.825,83.6,0,109.2,13.78,-4.47,285.5
"2009-11-16 00:56:30",1420239,5.5,322.3,4.173,0.661,1.841,98.23259,-5.202,-3.817,83.5,0,109.2,13.78,-4.47,284.3
"2009-11-16 00:57:00",1420240,4.423,318,7.348,1.149,-0.7,98.23316,-5.201,-3.957,83.3,0,109.2,13.78,-4.47,280.0
"2009-11-16 00:57:30",1420241,5.089,317.5,5.824,1.042,0.048,98.23458,-5.197,-3.948,83.3,0,109.2,13.78,-4.46,279.5
"2009-11-16 00:58:00",1420242,4.571,318.8,8.1,1.108,0.512,98.2397,-5.184,-3.822,83.3,0,109.2,13.78,-4.45,280.8
"2009-11-16 00:58:30",1420243,5.303,327.4,4.921,0.676,2.101,98.24052,-5.182,-3.805,83.2,0,109.1,13.78,-4.45,289.4
"2009-11-16 00:59:00",1420244,5.111,318.9,5.668,1.172,1.163,98.24901,-5.16,-3.822,83.2,0,109.2,13.78,-4.43,280.9
"2009-11-16 00:59:30",1420245,5.923,318,3.605,0.651,1.814,98.25129,-5.155,-3.831,83.1,0,109.2,13.78,-4.42,280.0
"2009-11-16 01:00:00",1420246,3.955,305.9,5.742,0.961,-1.578,98.26406,-5.122,-3.947,82.9,0,109.2,13.78,-4.39,267.9
"2009-11-16 01:00:30",1420247,5.142,315.3,5.719,1.073,0.682,98.26746,-5.113,-3.842,83,0,109.2,13.78,-4.38,277.3
"2009-11-16 01:01:00",1420248,5.283,318.6,5.832,1.057,0.9,98.26858,-5.111,-3.82,83,0,109.2,13.78,-4.38,280.6
"2009-11-16 01:01:30",1420249,5.744,322.2,4.766,0.461,2.437,98.26913,-5.109,-3.769,83,0,109.2,13.78,-4.38,284.2
"2009-11-16 01:02:00",1420250,5.532,319,5.914,0.933,1.635,98.26969,-5.108,-3.745,83,0,109.2,13.78,-4.37,281.0
"2009-11-16 01:02:30",1420251,5.358,317.2,6.006,0.947,0.928,98.27025,-5.106,-3.805,83,0,109.2,13.77,-4.37,279.2
"2009-11-16 01:03:00",1420252,4.52,311.5,5.841,1.072,-0.624,98.26885,-5.11,-3.99,82.7,0,109.2,13.77,-4.38,273.5
"2009-11-16 01:03:30",1420253,4.853,313.9,7.475,1.146,0.205,98.2711,-5.104,-3.792,82.9,0,109.2,13.77,-4.37,275.9
"2009-11-16 01:04:00",1420254,5.412,315.8,4.224,0.95,1.286,98.27621,-5.091,-3.795,82.9,0,109.1,13.77,-4.36,277.8
"2009-11-16 01:04:30",1420255,5.502,316.1,4.735,0.913,1.75,98.2819,-5.077,-3.732,82.9,0,109.2,13.77,-4.34,278.1
"2009-11-16 01:05:00",1420256,5.302,314.2,5.39,0.975,1.46,98.29692,-5.038,-3.724,82.8,0,109.2,13.77,-4.30,276.2
"2009-11-16 01:05:30",1420257,5.052,318.6,5.876,1.05,1.021,98.3015,-5.027,-3.769,82.8,0,109.2,13.77,-4.29,280.6
"2009-11-16 01:06:00",1420258,5.027,310.5,5.569,1.031,0.776,98.30401,-5.02,-3.749,82.8,0,109.2,13.77,-4.29,272.5
"2009-11-16 01:06:30",1420259,5.196,311.9,6.421,1.053,0.968,98.30485,-5.018,-3.746,82.7,0,109.2,13.77,-4.28,273.9
"2009-11-16 01:07:00",1420260,5.372,311.9,5.176,0.963,1.088,98.30318,-5.023,-3.735,82.7,0,109.2,13.77,-4.29,273.9
"2009-11-16 01:07:30",1420261,5.482,314.4,4.501,0.896,1.943,98.30262,-5.024,-3.64,82.7,0,109.2,13.77,-4.29,276.4
"2009-11-16 01:08:00",1420262,5.425,313.6,3.973,0.954,1.926,98.30207,-5.025,-3.635,82.6,0,109.2,13.78,-4.29,275.6
"2009-11-16 01:08:30",1420263,5.017,315.9,5.838,1.062,0.915,98.30463,-5.019,-3.7,82.4,0,109.2,13.77,-4.28,277.9
"2009-11-16 01:09:00",1420264,4.998,318.1,4.29,1.064,0.824,98.31372,-4.996,-3.734,82.3,0,109.2,13.78,-4.26,280.1
"2009-11-16 01:09:30",1420265,4.931,315,5.15,1.093,-0.03,98.33298,-4.947,-3.704,82.2,0,109.2,13.78,-4.21,277.0
"2009-11-16 01:10:00",1420266,4.937,314.6,5.85,1.071,0.668,98.33694,-4.937,-3.66,82.1,0,109.2,13.78,-4.20,276.6
"2009-11-16 01:10:30",1420267,5.378,322.7,4.403,0.573,1.785,98.33805,-4.934,-3.654,81.9,0,109.2,13.78,-4.20,284.7
"2009-11-16 01:11:00",1420268,5.114,319.2,5.319,1.01,1.799,98.33805,-4.934,-3.632,81.9,0,109.2,13.78,-4.20,281.2
"2009-11-16 01:11:30",1420269,4.48,316.8,5.857,1.137,0.431,98.33582,-4.939,-3.69,81.7,0,109.2,13.78,-4.20,278.8
"2009-11-16 01:12:00",1420270,4.548,319.5,5.94,1.2,0.897,98.33583,-4.939,-3.616,81.6,0,109.2,13.78,-4.20,281.5
"2009-11-16 01:12:30",1420271,5.271,317.4,5.546,0.929,1.439,98.3401,-4.929,-3.593,81.5,0,109.2,13.78,-4.19,279.4
"2009-11-16 01:13:00",1420272,5.064,317.5,5.612,1.023,0.684,98.34657,-4.912,-3.617,81.4,0,109.2,13.78,-4.18,279.5
"2009-11-16 01:13:30",1420273,5.347,315.1,4.903,0.808,1.659,98.352,-4.898,-3.576,81.3,0,109.2,13.78,-4.16,277.1
"2009-11-16 01:14:00",1420274,4.555,317.9,5.943,1.15,0.298,98.3625,-4.872,-3.636,81.1,0,109.2,13.78,-4.14,279.9
"2009-11-16 01:14:30",1420275,5.274,313.4,5.853,0.98,1.386,98.36902,-4.855,-3.586,81.1,0,109.2,13.78,-4.12,275.4
"2009-11-16 01:15:00",1420276,4.924,314.6,6.116,1.076,0.409,98.37013,-4.852,-3.657,80.9,0,109.2,13.78,-4.12,276.6
"2009-11-16 01:15:30",1420277,5.436,318.3,3.674,0.838,1.503,98.36846,-4.856,-3.531,80.8,0,109.3,13.78,-4.12,280.3
"2009-11-16 01:16:00",1420278,5.219,315.4,6.458,0.921,1.112,98.3679,-4.858,-3.56,80.7,0,109.2,13.78,-4.12,277.4
"2009-11-16 01:16:30",1420279,5.493,322.6,3.855,0.668,2.137,98.36846,-4.856,-3.53,80.6,0,109.2,13.78,-4.12,284.6
"2009-11-16 01:17:00",1420280,4.69,318.1,5.518,1.191,0.829,98.36932,-4.854,-3.576,80.5,0,109.2,13.78,-4.12,280.1
"2009-11-16 01:17:30",1420281,4.701,314.6,7.418,1.118,1.029,98.375,-4.84,-3.553,80.3,0,109.2,13.78,-4.10,276.6
"2009-11-16 01:18:00",1420282,4.899,315.4,5.949,1.089,1.056,98.37983,-4.827,-3.516,80.3,0,109.2,13.78,-4.09,277.4
"2009-11-16 01:18:30",1420283,4.819,315.9,5.614,1.093,1.007,98.38892,-4.804,-3.51,80.2,0,109.2,13.77,-4.07,277.9
"2009-11-16 01:19:00",1420284,5.038,314.4,5.409,0.955,1.021,98.40024,-4.775,-3.507,80.1,0,109.2,13.77,-4.04,276.4
"2009-11-16 01:19:30",1420285,4.887,313.3,6.469,1.104,0.92,98.40083,-4.774,-3.525,80,0,109.2,13.77,-4.04,275.3
"2009-11-16 01:20:00",1420286,5.318,313,5.015,0.834,1.605,98.4011,-4.773,-3.541,79.85,0,109.2,13.77,-4.04,275.0
"2009-11-16 01:20:30",1420287,4.74,316.4,5.781,1.123,1.115,98.40083,-4.774,-3.489,79.81,0,109.2,13.77,-4.04,278.4
"2009-11-16 01:21:00",1420288,4.631,314.9,5.884,1.131,0.784,98.40054,-4.775,-3.467,79.72,0,109.2,13.77,-4.04,276.9
"2009-11-16 01:21:30",1420289,4.701,322.3,6.56,1.086,1.289,98.40083,-4.774,-3.443,79.62,0,109.2,13.77,-4.04,284.3
"2009-11-16 01:22:00",1420290,4.324,316.5,6.304,1.12,-0.417,98.40508,-4.763,-3.517,79.5,0,109.2,13.77,-4.03,278.5
"2009-11-16 01:22:30",1420291,4.708,315.8,7.069,1.121,0.898,98.40878,-4.754,-3.476,79.45,0,109.2,13.77,-4.02,277.8
"2009-11-16 01:23:00",1420292,4.893,315.9,6.727,0.977,1.241,98.41218,-4.745,-3.452,79.39,0,109.2,13.77,-4.01,277.9
"2009-11-16 01:23:30",1420293,4.69,320.8,7.197,1.165,1.359,98.41614,-4.735,-3.415,79.36,0,109.2,13.77,-4.00,282.8
"2009-11-16 01:24:00",1420294,4.624,318.4,4.925,1.058,0.968,98.41756,-4.731,-3.451,79.19,0,109.2,13.77,-4.00,280.4
"2009-11-16 01:24:30",1420295,4.22,322.2,8.58,1.018,0.275,98.42833,-4.704,-3.468,79.08,0,109.2,13.78,-3.97,284.2
"2009-11-16 01:25:00",1420296,3.582,321.4,7.728,1.133,-0.504,98.4343,-4.689,-3.469,78.98,0,109.2,13.78,-3.95,283.4
"2009-11-16 01:25:30",1420297,4.014,317.5,6.212,1.22,0.42,98.43459,-4.688,-3.407,78.97,0,109.2,13.78,-3.95,279.5
"2009-11-16 01:26:00",1420298,4.561,322,6.758,0.954,1.347,98.43486,-4.687,-3.418,78.89,0,109.2,13.78,-3.95,284.0
"2009-11-16 01:26:30",1420299,4.448,319.1,5.628,1.098,1.04,98.43459,-4.688,-3.405,78.81,0,109.2,13.78,-3.95,281.1
"2009-11-16 01:27:00",1420300,4.655,323.5,7.163,1.165,1.134,98.43431,-4.689,-3.374,78.72,0,109.2,13.78,-3.95,285.5
"2009-11-16 01:27:30",1420301,4.562,325.1,5.988,1.077,1.09,98.43431,-4.689,-3.399,78.6,0,109.2,13.78,-3.95,287.1
"2009-11-16 01:28:00",1420302,4.866,320.8,5.768,0.931,1.039,98.43431,-4.689,-3.392,78.54,0,109.2,13.78,-3.95,282.8
"2009-11-16 01:28:30",1420303,4.445,324.6,8.6,1.055,1.044,98.43431,-4.689,-3.4,78.47,0,109.2,13.78,-3.95,286.6
"2009-11-16 01:29:00",1420304,4.597,318.9,4.598,0.973,1.457,98.43431,-4.689,-3.344,78.4,0,109.2,13.78,-3.95,280.9
"2009-11-16 01:29:30",1420305,4.537,310.9,8.2,1.064,1.198,98.43431,-4.689,-3.413,78.26,0,109.2,13.78,-3.95,272.9
"2009-11-16 01:30:00",1420306,4.786,321.3,6.502,0.998,0.955,98.43431,-4.689,-3.398,78.24,0,109.2,13.78,-3.95,283.3
"2009-11-16 01:30:30",1420307,3.73,324.9,7.119,1.11,-0.822,98.43459,-4.688,-3.475,78.13,0,109.2,13.78,-3.95,286.9
"2009-11-16 01:31:00",1420308,4.59,322.2,9.77,1.029,1.16,98.43657,-4.683,-3.346,78.19,0,109.1,13.78,-3.95,284.2
"2009-11-16 01:31:30",1420309,4.836,318.6,5.617,1.064,0.964,98.43714,-4.681,-3.381,78.03,0,109.2,13.78,-3.95,280.6
"2009-11-16 01:32:00",1420310,5.125,318.2,5.651,0.963,1.443,98.44282,-4.667,-3.338,77.99,0,109.2,13.78,-3.93,280.2
"2009-11-16 01:32:30",1420311,5.253,327,6.719,0.879,1.483,98.44423,-4.663,-3.365,77.8,0,109.2,13.78,-3.93,289.0
"2009-11-16 01:33:00",1420312,4.591,319.1,5.154,1.192,1.061,98.45671,-4.632,-3.345,77.67,0,109.2,13.78,-3.90,281.1
"2009-11-16 01:33:30",1420313,4.825,319.2,6.972,1.071,1.285,98.46635,-4.607,-3.391,77.51,0,109.2,13.78,-3.87,281.2
"2009-11-16 01:34:00",1420314,4.755,325.3,5.399,1.205,0.734,98.46835,-4.602,-3.367,77.4,0,109.2,13.78,-3.87,287.3
"2009-11-16 01:34:30",1420315,5.078,326,5.264,0.929,1.904,98.46835,-4.602,-3.285,77.34,0,109.2,13.78,-3.87,288.0
"2009-11-16 01:35:00",1420316,5.179,326.6,5.116,0.837,2.139,98.46835,-4.602,-3.319,77.18,0,109.2,13.77,-3.87,288.6
"2009-11-16 01:35:30",1420317,4.526,325.5,7.067,1.123,0.96,98.46835,-4.602,-3.32,77.12,0,109.2,13.77,-3.87,287.5
"2009-11-16 01:36:00",1420318,4.349,319.1,6.725,1.152,0.347,98.46835,-4.602,-3.296,77.07,0,109.2,13.77,-3.87,281.1
"2009-11-16 01:36:30",1420319,4.71,317.6,5.585,1.165,0.887,98.46835,-4.602,-3.316,77.02,0,109.2,13.77,-3.87,279.6
"2009-11-16 01:37:00",1420320,4.868,316.7,5.547,1.016,1.363,98.46835,-4.602,-3.339,76.87,0,109.2,13.77,-3.87,278.7
"2009-11-16 01:37:30",1420321,4.741,320.8,6.317,1.145,0.868,98.46835,-4.602,-3.297,76.77,0,109.2,13.77,-3.87,282.8
"2009-11-16 01:38:00",1420322,4.918,327.8,4.521,1.028,1.394,98.46863,-4.601,-3.289,76.72,0,109.2,13.77,-3.87,289.8
"2009-11-16 01:38:30",1420323,4.514,323.6,6.032,1.051,0.962,98.47061,-4.596,-3.314,76.64,0,109.2,13.77,-3.86,285.6
"2009-11-16 01:39:00",1420324,3.843,323.6,5.698,1.115,-0.311,98.47514,-4.585,-3.315,76.59,0,109.2,13.77,-3.85,285.6
"2009-11-16 01:39:30",1420325,4.544,321.9,6.649,1.072,1.302,98.47656,-4.581,-3.257,76.57,0,109.2,13.77,-3.85,283.9
"2009-11-16 01:40:00",1420326,4.669,320,7.225,1.193,1.419,98.47799,-4.577,-3.311,76.45,0,109.2,13.77,-3.84,282.0
"2009-11-16 01:40:30",1420327,4.801,325.9,5.521,1.013,1.029,98.4811,-4.569,-3.295,76.39,0,109.2,13.78,-3.83,287.9
"2009-11-16 01:41:00",1420328,4.526,325.4,6.584,1.142,1.035,98.48253,-4.566,-3.231,76.35,0,109.2,13.78,-3.83,287.4
"2009-11-16 01:41:30",1420329,4.994,316.7,5.429,0.954,1.454,98.48849,-4.551,-3.346,76.13,0,109.2,13.78,-3.81,278.7
"2009-11-16 01:42:00",1420330,4.186,316.3,6.615,1.169,-0.025,98.49529,-4.533,-3.266,76.01,0,109.2,13.78,-3.80,278.3
"2009-11-16 01:42:30",1420331,4.923,321.2,6.231,0.959,1.489,98.50124,-4.518,-3.269,75.81,0,109.2,13.78,-3.78,283.2
"2009-11-16 01:43:00",1420332,4.33,323.3,7.12,1.099,1.316,98.50237,-4.515,-3.239,75.63,0,109.2,13.78,-3.78,285.3
"2009-11-16 01:43:30",1420333,4.664,317.9,5.377,0.853,1.9,98.50237,-4.515,-3.243,75.42,0,109.2,13.78,-3.78,279.9
"2009-11-16 01:44:00",1420334,3.897,323.4,7.131,1.119,0.867,98.50237,-4.515,-3.252,75.23,0,109.2,13.78,-3.78,285.4
"2009-11-16 01:44:30",1420335,2.727,322.7,5.073,0.957,-1.816,98.50237,-4.515,-3.359,75.06,0,109.2,13.78,-3.78,284.7
"2009-11-16 01:45:00",1420336,3.967,327.8,5.56,1.299,0.733,98.50237,-4.515,-3.193,75.05,0,109.2,13.78,-3.78,289.8